Vertical_Velocity
-2 -0 2 4 -0 7 -4 5 4 2 0 -6 -2 3 5 3 -1 -4 -5 -2 -1 -2 -1 -1 -1 2 0 -2 -1 -1 0 1 2 1 0 1 0 1 1 -0 -0 -1 -1 -0 -0 -0 -0 -1 -0
-0 -0 2 3 4 -2 1 0 -10 -5 -0 3 -11 7 2 -0 11 5 -4 -1 -0 -2 -0 -1 -0 1 1 -1 -1 -2 -0 1 0 1 1 0 -0 0 -0 -1 -1 -1 -2 -0 -1 -0 -1 -1 -2
5 1 2 5 4 -2 1 4 0 -8 2 3 -15 3 3 4 1 4 -2 -1 -0 -3 -1 -0 -0 0 0 0 -2 -2 -2 1 1 1 2 1 -1 -1 -1 -1 -1 -1 -1 -1 -0 -1 -1 -2 -3
-1 1 3 9 8 5 4 -8 -2 -4 -4 -6 -9 3 4 2 3 5 -4 -0 -0 -1 -1 -0 -1 -0 0 -1 -1 -2 -1 -2 1 2 1 1 -0 -1 -1 -0 -0 -1 -1 -1 -1 -0 -2 -2 -2
1 0 4 6 4 8 -8 -1 -2 0 -3 -1 2 -7 0 -4 4 9 3 -1 -1 -0 -2 -1 -1 -0 -1 -1 -0 -2 -1 -1 -1 1 0 1 0 -1 -1 -0 -1 -1 -1 -1 -1 -0 -0 -1 -1
-5 1 5 3 9 4 1 -0 -1 0 -6 -1 -9 -3 3 -3 -1 2 3 -2 -3 2 -2 -1 -1 -1 -1 -0 -1 -0 -2 -1 -1 0 1 0 1 0 -1 -2 -1 -1 -0 -0 -0 -1 -2 0 -1
-8 -1 2 -0 12 7 5 -1 -0 -0 1 -3 -6 -7 -4 6 -1 1 1 -2 0 1 1 -1 -0 -1 -1 -0 -1 -0 -0 -2 1 -1 2 -0 1 1 1 -2 -1 -1 -1 0 1 -0 -1 -1 0
-3 3 5 6 15 10 -8 -1 -2 2 5 -6 -8 -3 -1 -2 8 1 -1 2 -3 1 1 2 -0 -0 -0 -0 -1 -1 0 -0 -1 -0 0 1 1 2 1 0 -1 -0 -2 -2 -0 -0 0 -1 -2
0 6 4 4 -0 18 -11 6 -5 -1 7 -8 3 -4 -2 0 4 2 4 -0 1 0 1 1 0 0 0 -0 -0 -1 0 0 -0 -1 -1 1 1 1 0 0 2 0 -1 -1 -1 -2 -1 1 -2
-4 5 5 2 6 14 -13 -6 -9 -0 7 -11 -1 3 -14 -1 -2 2 2 -4 3 -4 3 1 -0 0 0 0 1 -1 -1 0 0 -0 -1 -1 2 1 1 -1 -1 -0 1 -1 -1 -0 -2 -0 -1
-4 6 -3 4 -6 6 6 -7 0 -4 4 -4 -5 -3 3 -12 -2 7 6 5 -0 4 -4 2 1 0 0 1 2 1 -1 1 0 0 0 -0 -2 1 1 1 0 -1 -2 -1 -1 -1 -2 -1 1
-3 -7 3 4 6 2 8 9 7 3 11 5 -2 -4 3 1 -0 1 4 12 2 1 1 2 1 1 1 2 1 2 2 0 1 1 0 1 -0 -1 0 -0 0 0 0 -1 -0 0 -0 -1 1
-6 4 -1 1 -1 -4 -5 -1 -6 8 9 21 -1 9 -5 -6 7 5 -0 4 9 5 5 2 3 2 3 2 2 1 4 1 1 1 1 1 1 -0 0 0 -1 0 -0 0 -1 -2 -0 1 1
-1 -7 1 8 5 -0 -7 -16 -33 36 15 5 7 16 8 5 -12 6 -1 -0 3 5 10 -1 2 1 1 2 3 1 3 2 -0 2 1 1 -0 0 -1 0 -0 -0 -0 0 0 -0 -2 -2 -1
-4 2 1 -11 -7 1 -41 19 -3 1 -11 -8 -12 -0 2 2 -7 -9 3 -2 6 7 8 2 0 -2 3 2 3 2 3 4 1 1 1 2 -0 1 -0 -1 -0 1 1 -1 -1 0 -1 -0 1
0 -4 5 11 -0 -4 -21 12 7 5 -8 -5 -3 -6 1 -3 2 0 10 5 -2 7 5 13 -1 -2 8 1 0 1 3 3 4 1 3 1 3 -1 1 0 -0 -1 1 1 0 -0 -1 -2 -1
0 1 1 -0 2 4 -20 8 4 7 -3 8 8 1 -5 13 -6 1 1 -4 5 -5 4 3 12 -2 12 -1 -0 -0 -1 1 6 2 1 1 2 3 -0 0 -0 0 -1 1 -0 -1 0 -1 -2
-2 -1 1 -3 15 -2 -10 0 0 6 4 5 3 -1 -3 -4 22 6 -5 -18 5 -4 6 -4 7 9 8 3 -8 1 -6 -3 1 2 2 2 1 3 2 -2 1 1 -1 0 0 -1 0 -1 -1
-8 -12 -9 -3 3 -5 3 -24 6 11 9 6 15 6 1 -1 -9 5 6 16 -10 -9 -13 -8 1 4 -6 -5 -1 5 6 1 -2 0 -0 5 1 -1 3 1 -3 -0 2 -1 0 -1 -1 -2 -0
-10 -9 -5 1 5 -12 8 -17 6 10 13 3 1 9 5 -5 3 15 14 8 7 -2 -7 -5 -0 2 -1 -0 4 -1 1 1 2 4 6 2 2 -2 -3 2 1 -0 -0 1 -1 -0 -1 -1 1
-5 -10 -9 -8 5 11 -5 -17 -4 13 10 19 7 4 -3 -7 -5 6 3 14 13 3 -7 7 -15 -9 5 -6 -1 -2 -18 -7 -9 -0 -4 -2 -1 -2 1 3 -1 -2 -1 1 -2 -1 -1 -1 0
-3 -6 -4 -5 -6 1 9 -36 9 11 8 1 -4 -1 3 9 -7 4 -7 11 11 7 -8 5 -5 2 -6 5 -5 -7 5 0 8 8 4 6 -2 -1 3 1 1 -3 -0 -2 1 -5 -2 -6 1
-7 -7 -5 -2 -3 -1 4 -17 18 0 2 1 -7 -1 -3 -3 3 7 4 7 6 4 5 -2 -5 1 3 -5 7 2 -16 -1 5 -2 -4 -2 2 -3 0 3 -0 -2 -1 3 -2 -4 -1 -4 -6
-6 -6 -4 -4 -5 -0 -1 -2 -1 3 3 4 1 -7 -3 0 0 5 3 -1 9 10 5 1 -3 1 3 -11 7 3 6 -2 -7 -5 -0 3 5 4 1 4 2 4 2 -0 4 4 -4 -0 -5
-11 -8 -5 -5 -0 -5 1 -0 -3 -3 9 -1 1 -4 -2 2 1 0 6 5 3 10 7 3 1 -6 0 -5 -4 8 8 9 6 2 -1 1 6 8 7 1 4 3 7 4 2 0 -1 -1 -2
-2 -6 -6 -13 -3 -12 11 -0 3 3 6 -4 15 1 -5 -6 -2 0 -5 5 0 5 5 2 -3 2 2 -1 -3 -3 -1 11 10 5 -2 1 4 9 12 -3 0 4 -0 4 2 0 0 -4 -4
5 -3 -3 -9 -2 -6 6 2 -8 11 2 7 6 -0 -0 -0 -0 -2 -7 -3 -4 -1 3 1 0 -4 -1 1 3 0 -3 1 9 7 3 -1 -1 7 4 8 -3 1 -2 2 0 -1 2 2 1
-2 -0 1 -5 -6 -6 4 -3 -13 -2 -4 1 7 -0 -0 2 -1 0 -3 -9 2 -2 5 -2 -2 -2 -1 -2 -2 -2 6 3 -5 1 11 7 12 -5 1 8 7 6 4 1 2 4 1 -0 4
-11 -8 -2 2 1 -7 -7 14 1 3 -1 -9 1 -9 -4 1 -1 -4 -8 -2 -4 1 1 1 0 -11 -2 -4 -1 -2 -2 4 -3 -4 1 1 1 13 2 6 5 4 1 4 1 6 1 -3 -1
-3 -2 -3 -1 1 -0 -8 -2 -1 2 -1 -8 -4 -0 -8 -6 -0 2 2 3 -5 -3 -5 0 -1 1 -7 -0 -3 1 -8 -1 -1 -6 -8 -6 -3 6 -7 1 2 -0 -5 -3 -3 -3 1 3 -7
Height
5868 5871 5873 5878 5884 5884 5881 5885 5884 5888 5888 5889 5890 5894 5896 5896 5897 5897 5896 5897 5897 5896 5895 5895 5894 5893 5892 5890 5887 5886 5885 5885 5885 5884 5883 5883 5883 5883 5883 5883 5882 5882 5882 5882 5882 5883 5883 5884 5885
5864 5868 5871 5874 5880 5877 5878 5878 5877 5883 5886 5889 5888 5887 5894 5896 5899 5895 5896 5896 5896 5896 5896 5895 5894 5894 5893 5892 5888 5887 5886 5886 5887 5886 5885 5884 5884 5884 5883 5883 5883 5883 5883 5884 5885 5885 5886 5886 5887
5860 5864 5868 5872 5875 5873 5875 5876 5876 5878 5883 5887 5887 5883 5890 5894 5896 5895 5894 5895 5895 5896 5896 5895 5894 5894 5893 5892 5890 5888 5887 5887 5888 5887 5887 5885 5884 5884 5884 5884 5885 5885 5886 5887 5888 5888 5888 5889 5889
5856 5860 5864 5868 5872 5868 5870 5870 5871 5874 5879 5880 5883 5881 5884 5890 5892 5893 5892 5893 5894 5894 5895 5895 5894 5894 5893 5893 5892 5890 5888 5888 5889 5889 5888 5887 5885 5885 5885 5886 5887 5888 5888 5889 5889 5890 5891 5891 5892
5852 5854 5859 5863 5867 5866 5862 5863 5864 5868 5874 5876 5879 5879 5878 5885 5890 5891 5890 5892 5892 5892 5894 5894 5894 5894 5893 5893 5892 5892 5889 5889 5889 5889 5889 5889 5887 5886 5886 5888 5889 5890 5891 5891 5892 5893 5894 5894 5895
5849 5851 5855 5858 5862 5861 5860 5859 5859 5860 5867 5873 5875 5876 5877 5881 5886 5888 5889 5888 5889 5890 5892 5892 5893 5893 5893 5893 5893 5892 5891 5889 5890 5890 5890 5890 5890 5889 5889 5890 5891 5892 5893 5893 5894 5895 5896 5896 5896
5843 5844 5849 5853 5857 5857 5857 5856 5857 5856 5860 5867 5870 5869 5872 5878 5882 5883 5886 5884 5886 5887 5888 5891 5891 5892 5893 5893 5892 5892 5892 5891 5890 5890 5890 5891 5892 5892 5891 5891 5892 5893 5894 5895 5896 5897 5897 5898 5898
5836 5841 5844 5848 5851 5853 5850 5852 5852 5851 5852 5860 5863 5865 5866 5869 5877 5882 5882 5881 5881 5884 5885 5887 5890 5891 5891 5892 5892 5892 5892 5891 5890 5890 5891 5891 5892 5894 5894 5893 5893 5894 5894 5895 5897 5898 5899 5899 5899
5832 5835 5838 5841 5844 5847 5845 5845 5845 5845 5848 5854 5858 5860 5860 5867 5869 5876 5879 5879 5876 5880 5882 5884 5887 5889 5889 5890 5891 5891 5892 5891 5891 5890 5891 5891 5893 5894 5895 5895 5895 5895 5896 5896 5897 5898 5899 5899 5899
5827 5829 5831 5834 5837 5840 5841 5842 5843 5845 5843 5847 5850 5852 5855 5858 5864 5866 5873 5876 5876 5875 5878 5880 5883 5885 5887 5887 5889 5890 5890 5890 5891 5891 5891 5892 5892 5894 5895 5895 5896 5896 5896 5897 5898 5898 5899 5899 5899
5822 5824 5826 5827 5827 5832 5836 5835 5839 5842 5841 5842 5843 5846 5847 5854 5856 5860 5865 5869 5871 5870 5873 5876 5878 5881 5884 5885 5886 5888 5888 5889 5890 5890 5890 5891 5892 5892 5894 5895 5896 5895 5896 5896 5897 5898 5898 5899 5899
5819 5819 5820 5823 5822 5824 5829 5834 5835 5837 5839 5836 5839 5838 5842 5845 5849 5853 5856 5865 5865 5868 5867 5871 5874 5876 5880 5882 5884 5885 5886 5887 5888 5888 5889 5890 5891 5892 5893 5894 5895 5896 5895 5895 5895 5897 5898 5899 5899
5812 5813 5813 5814 5816 5817 5818 5825 5828 5832 5830 5834 5835 5833 5835 5836 5842 5843 5847 5855 5860 5861 5862 5865 5868 5871 5875 5878 5880 5882 5883 5884 5885 5887 5887 5888 5888 5890 5891 5892 5893 5895 5895 5895 5895 5895 5897 5898 5899
5804 5804 5803 5802 5803 5804 5806 5816 5822 5825 5817 5818 5824 5828 5827 5827 5829 5835 5838 5844 5852 5856 5856 5856 5862 5865 5868 5872 5876 5878 5879 5880 5882 5884 5885 5886 5886 5887 5889 5890 5892 5892 5894 5895 5895 5895 5895 5895 5897
5796 5796 5795 5792 5789 5789 5790 5804 5807 5803 5800 5804 5805 5812 5814 5819 5818 5825 5828 5831 5841 5847 5850 5848 5852 5857 5861 5864 5869 5873 5875 5876 5878 5880 5882 5883 5884 5885 5885 5887 5889 5891 5892 5893 5894 5895 5894 5894 5895
5786 5786 5784 5782 5777 5776 5779 5785 5787 5786 5789 5792 5794 5797 5803 5804 5806 5808 5815 5819 5822 5833 5839 5842 5843 5847 5851 5856 5861 5866 5869 5872 5873 5875 5878 5879 5881 5882 5884 5884 5885 5887 5889 5890 5890 5892 5893 5892 5892
5773 5771 5769 5766 5758 5757 5756 5765 5765 5768 5769 5777 5777 5782 5791 5799 5798 5800 5801 5805 5808 5811 5824 5831 5836 5839 5843 5848 5853 5857 5861 5865 5868 5869 5873 5876 5877 5878 5880 5881 5882 5883 5884 5887 5888 5888 5890 5891 5890
5757 5753 5749 5741 5736 5733 5728 5740 5742 5745 5749 5751 5757 5763 5772 5781 5789 5786 5788 5792 5799 5798 5806 5814 5820 5827 5833 5838 5843 5848 5850 5855 5860 5865 5867 5870 5872 5874 5876 5877 5879 5880 5881 5882 5884 5885 5886 5887 5889
5741 5734 5728 5720 5711 5707 5709 5714 5720 5722 5724 5729 5733 5737 5745 5757 5764 5775 5777 5781 5786 5787 5789 5799 5805 5813 5820 5825 5832 5840 5845 5850 5854 5858 5861 5863 5866 5868 5872 5873 5874 5877 5878 5878 5879 5881 5883 5883 5886
5725 5716 5708 5702 5697 5695 5693 5698 5705 5705 5708 5706 5711 5718 5722 5731 5745 5752 5758 5761 5766 5768 5771 5778 5789 5798 5806 5813 5821 5826 5834 5840 5845 5849 5852 5855 5859 5862 5866 5868 5871 5872 5873 5874 5876 5877 5879 5880 5883
5709 5698 5692 5691 5687 5684 5680 5683 5693 5694 5690 5689 5689 5693 5699 5712 5726 5735 5740 5750 5754 5756 5762 5767 5773 5783 5798 5801 5807 5812 5818 5823 5828 5835 5843 5848 5853 5857 5860 5862 5865 5867 5869 5870 5871 5872 5874 5876 5878
5697 5688 5681 5676 5671 5669 5669 5664 5679 5675 5668 5667 5671 5676 5690 5700 5707 5717 5720 5730 5739 5747 5753 5756 5758 5769 5784 5790 5794 5800 5811 5818 5825 5831 5839 5842 5844 5848 5852 5854 5857 5861 5863 5865 5867 5866 5869 5869 5873
5686 5677 5672 5667 5663 5659 5659 5656 5663 5660 5658 5660 5662 5669 5673 5682 5690 5698 5707 5713 5722 5732 5742 5747 5749 5752 5767 5776 5784 5789 5795 5804 5812 5819 5825 5830 5835 5838 5842 5846 5850 5854 5857 5859 5860 5861 5862 5864 5866
5674 5668 5665 5661 5659 5658 5657 5654 5654 5653 5653 5652 5651 5657 5665 5671 5676 5681 5690 5699 5706 5715 5723 5733 5739 5740 5747 5760 5769 5775 5785 5791 5796 5805 5813 5821 5827 5830 5833 5836 5842 5846 5849 5852 5853 5855 5855 5857 5859
5666 5660 5658 5658 5656 5655 5654 5651 5649 5649 5648 5644 5646 5648 5652 5656 5662 5667 5675 5684 5692 5702 5709 5715 5722 5728 5730 5745 5757 5763 5770 5776 5783 5791 5800 5810 5816 5819 5824 5829 5833 5839 5843 5845 5846 5847 5849 5851 5852
5664 5655 5651 5648 5650 5650 5650 5647 5646 5644 5642 5641 5639 5642 5644 5645 5648 5652 5659 5667 5676 5681 5691 5699 5707 5715 5719 5726 5741 5751 5757 5761 5768 5777 5785 5791 5801 5810 5816 5820 5823 5827 5832 5835 5837 5838 5840 5842 5844
5659 5651 5647 5643 5644 5642 5644 5643 5641 5640 5639 5637 5635 5636 5637 5639 5639 5642 5647 5651 5657 5665 5669 5680 5691 5700 5706 5710 5721 5735 5743 5750 5754 5764 5773 5781 5788 5795 5804 5809 5813 5817 5820 5824 5828 5829 5832 5833 5836
5648 5648 5643 5639 5638 5636 5636 5635 5633 5633 5634 5632 5634 5632 5632 5631 5632 5634 5638 5641 5646 5649 5653 5659 5673 5683 5692 5698 5704 5717 5729 5735 5742 5749 5754 5763 5772 5778 5786 5793 5800 5806 5808 5814 5817 5820 5823 5824 5827
5643 5638 5635 5635 5632 5628 5627 5628 5627 5629 5627 5626 5629 5630 5628 5629 5628 5628 5628 5631 5634 5639 5641 5643 5653 5664 5675 5683 5691 5696 5709 5719 5723 5731 5739 5744 5753 5760 5771 5778 5786 5792 5797 5801 5807 5810 5812 5815 5819
5639 5632 5628 5624 5624 5621 5619 5619 5622 5622 5620 5619 5622 5622 5623 5623 5624 5624 5625 5625 5627 5630 5632 5633 5636 5646 5656 5664 5672 5679 5688 5701 5707 5712 5723 5723 5735 5745 5756 5765 5772 5778 5784 5789 5793 5799 5802 5805 5809